This demonstration page uses our WeatherBlox Daily Observations layout. Learn more.

Left ArrowRight Arrow

39.51506, -84.39828

Hourly Observations for July 17, 2015

Temp ( °F °C ) Dew Point ( °F °C ) Humidity (%) Winds ( mph kmh ) Pressure ( in mb ) Visibility ( mi km ) Precip ( " mm )
12:15 am 00:15 Clear 73 22.5 67 19.3 82 82 N N/A 29.94 1014 10 16 N/A
12:35 am 00:35 Clear 74 23.6 68 19.9 80 80 N N/A 29.94 1014 10 16 N/A
12:55 am 00:55 Clear 74 23.2 68 20 82 82 N N/A 29.94 1014 10 16 N/A
1:15 am 01:15 Clear 74 23.6 69 20.3 82 82 W 3 6 29.94 1014 10 16 N/A
1:35 am 01:35 Clear 71 21.8 67 19.2 85 85 N N/A 29.94 1014 10 16 N/A
1:55 am 01:55 Clear 72 22 67 19.3 85 85 N N/A 29.94 1014 10 16 N/A
2:15 am 02:15 Clear 69 20.8 65 18.5 87 87 N N/A 29.94 1014 10 16 N/A
2:35 am 02:35 Clear 69 20.8 65 18.5 87 87 N N/A 29.94 1014 10 16 N/A
2:55 am 02:55 Clear 69 20.8 66 18.7 88 88 N N/A 29.94 1014 7 11 N/A
3:15 am 03:15 Clear 69 20.8 66 18.7 88 88 N N/A 29.94 1014 7 11 N/A
3:35 am 03:35 Clear 69 20.8 66 18.7 88 88 N N/A 29.94 1014 7 11 N/A
3:55 am 03:55 Clear 69 20.8 65 18.5 87 87 N N/A 29.94 1014 7 11 N/A
4:15 am 04:15 Clear 69 20.8 65 18.6 87 87 N N/A 29.91 1013 7 11 N/A
4:35 am 04:35 Clear 69 20.8 65 18.6 87 87 N N/A 29.91 1013 7 11 N/A
4:55 am 04:55 Clear 69 20.8 66 18.7 88 88 N N/A 29.91 1013 7 11 N/A
5:15 am 05:15 Clear 69 20.8 66 18.7 88 88 S 3 6 29.91 1013 10 16 N/A
5:35 am 05:35 Clear 69 20.8 64 18 84 84 N N/A 29.91 1013 10 16 N/A
5:55 am 05:55 Clear 69 20.8 65 18.5 87 87 N N/A 29.91 1013 7 11 N/A
6:15 am 06:15 Clear 69 20.8 66 18.7 88 88 N N/A 29.94 1014 7 11 N/A
6:35 am 06:35 Sunny 69 20.8 65 18.5 87 87 N N/A 29.94 1014 7 11 N/A
6:55 am 06:55 Partly Cloudy 69 20.8 65 18.5 87 87 N N/A 29.94 1014 7 11 N/A
7:15 am 07:15 Mostly Cloudy 69 20.8 66 18.7 88 88 SSW 3 6 29.94 1014 7 11 N/A
7:35 am 07:35 Mostly Cloudy 74 23.6 69 20.5 83 83 SSW 5 7 29.94 1014 7 11 N/A
7:55 am 07:55 Mostly Cloudy 74 23.6 69 20.3 82 82 SW 6 9 29.94 1014 7 11 N/A
8:15 am 08:15 Mostly Cloudy 74 23.6 68 20.1 81 81 S 5 7 29.94 1014 10 16 N/A
8:35 am 08:35 Mostly Cloudy 74 23.6 67 19.4 77 77 SSW 9 15 29.94 1014 10 16 N/A
8:55 am 08:55 Mostly Cloudy 76 24.5 68 19.9 76 76 SSW 8 13 29.91 1013 10 16 N/A
9:15 am 09:15 Partly Cloudy 77 25.1 69 20.3 75 75 SSW 7 11 29.91 1013 10 16 N/A
9:35 am 09:35 Partly Cloudy 78 25.3 68 20 73 73 SSW 7 11 29.91 1013 10 16 N/A
9:55 am 09:55 Partly Cloudy 80 26.5 69 20.4 69 69 SSW 10 17 29.91 1013 10 16 N/A
10:15 am 10:15 Partly Cloudy 80 26.5 69 20.4 69 69 SW 10 17 29.91 1013 10 16 N/A
10:35 am 10:35 Sunny 81 27.2 70 20.9 69 69 SSW 8 13 29.91 1013 10 16 N/A
10:55 am 10:55 Sunny 82 28 69 20.6 64 64 SW 13 20 29.88 1012 10 16 N/A
11:15 am 11:15 Sunny 83 28.3 70 21.1 65 65 SW 16 26 29.88 1012 10 16 N/A
11:35 am 11:35 Partly Cloudy 83 28.6 70 21.1 64 64 SW 15 24 29.88 1012 10 16 N/A
11:55 am 11:55 Partly Cloudy 84 29.1 71 21.8 65 65 SW 15 24 29.88 1012 10 16 N/A
12:15 pm 12:15 Partly Cloudy 85 29.5 72 22.4 66 66 SSW 9 15 29.88 1012 10 16 N/A
12:35 pm 12:35 Partly Cloudy 89 31.4 75 24.1 65 65 SW 10 17 29.88 1012 10 16 N/A
12:55 pm 12:55 Partly Cloudy 90 32.1 76 24.4 64 64 SW 12 19 29.88 1012 10 16 N/A
1:15 pm 13:15 Partly Cloudy 90 32.1 76 24.2 63 63 SSW 12 19 29.88 1012 10 16 N/A
1:35 pm 13:35 Partly Cloudy 90 32.1 76 24.3 63 63 SSW 12 19 29.88 1012 10 16 N/A
1:55 pm 13:55 Sunny 90 32.1 75 23.8 62 62 SW 14 22 29.88 1012 10 16 N/A
2:15 pm 14:15 Partly Cloudy 90 32.1 74 23.2 59 59 SW 14 22 29.85 1011 10 16 N/A
2:35 pm 14:35 Partly Cloudy 90 32.1 73 23 59 59 SW 14 22 29.85 1011 10 16 N/A
2:55 pm 14:55 Partly Cloudy 90 32.1 73 22.9 58 58 SW 12 19 29.85 1011 10 16 N/A
3:15 pm 15:15 Partly Cloudy 91 32.8 74 23.1 57 57 SW 13 20 29.85 1011 10 16 N/A
3:35 pm 15:35 Partly Cloudy 92 33.5 74 23.6 56 56 SW 12 19 29.85 1011 N/A N/A
3:55 pm 15:55 Partly Cloudy 91 32.9 73 22.5 54 54 SW 13 20 29.85 1011 10 16 N/A
4:15 pm 16:15 Sunny 95 35 76 24.5 54 54 WSW 12 19 29.85 1011 N/A N/A
4:35 pm 16:35 Partly Cloudy 91 32.7 72 22.1 54 54 SW 15 24 29.85 1011 10 16 N/A
4:55 pm 16:55 Partly Cloudy 90 32.1 72 22.2 56 56 SW 12 19 29.85 1011 10 16 N/A
5:15 pm 17:15 Sunny 90 32.1 74 23.6 61 61 SW 12 19 29.85 1011 N/A N/A
5:35 pm 17:35 Sunny 90 32.1 74 23.3 60 60 WSW 8 13 29.85 1011 10 16 N/A
5:55 pm 17:55 Sunny 87 30.7 73 23 64 64 SW 6 9 29.85 1011 N/A N/A
6:15 pm 18:15 Partly Cloudy with Light Rain 85 29.2 72 22.3 66 66 SW 5 7 29.85 1011 10 16 N/A
6:35 pm 18:35 Partly Cloudy with Light Rain 83 28.5 73 22.6 70 70 WSW 6 9 29.85 1011 N/A N/A
6:55 pm 18:55 Partly Cloudy with Light Rain 82 28 74 23.2 75 75 W 5 7 29.85 1011 10 16 N/A
7:15 pm 19:15 Partly Cloudy 82 28 74 23.1 75 75 N N/A 29.85 1011 10 16 N/A
7:35 pm 19:35 Mostly Cloudy with Light Rain 82 28 74 23.2 75 75 SSW 10 17 29.83 1010 10 16 N/A
7:55 pm 19:55 Mostly Cloudy with Light Rain 82 28 72 22.1 70 70 SSW 15 24 N/A 10 16 N/A
8:15 pm 20:15 Partly Cloudy 82 28 71 21.9 70 70 WSW 12 19 29.80 1009 10 16 N/A
8:35 pm 20:35 Sunny 81 27.2 72 22.1 74 74 WSW 12 19 29.83 1010 10 16 N/A
8:55 pm 20:55 Sunny 82 27.9 73 22.7 73 73 W 17 28 29.85 1011 10 16 N/A
9:15 pm 21:15 Partly Cloudy with Light Rain 80 26.8 72 22.1 75 75 W 12 19 29.91 1013 10 16 N/A
9:35 pm 21:35 Partly Cloudy with Light Rain 80 26.5 70 21.3 73 73 SW 13 20 29.85 1011 10 16 N/A
9:55 pm 21:55 Partly Cloudy with Light Rain 77 25.1 68 20.1 74 74 WSW 8 13 29.91 1013 10 16 N/A
10:15 pm 22:15 Clear with Light Rain 77 25.1 69 20.5 76 76 SW 13 20 29.91 1013 10 16 N/A
10:35 pm 22:35 Clear with Light Rain 75 24 68 19.9 78 78 SSW 12 19 29.88 1012 10 16 N/A
10:55 pm 22:55 Clear with Light Rain 74 23.6 68 20.2 81 81 SSW 12 19 29.88 1012 10 16 N/A
11:15 pm 23:15 Mostly Cloudy with Light Rain 74 23.6 69 20.6 83 83 SSW 10 17 29.85 1011 10 16 N/A
11:35 pm 23:35 Partly Cloudy 74 23.6 69 20.7 84 84 SSW 12 19 29.85 1011 10 16 N/A
11:55 pm 23:55 Clear 74 23.6 70 21 85 85 N 6 9 29.88 1012 10 16 N/A

Powered by AerisWeather